#timestamp,LO_Frequency,Hit,StdDev 
1660680015.5,286047000.7,N
1660680035.3,286047000.9,N
1660680055.2,286047000.9,N
1660680075.0,286046998.3,N
1660680075.9,286046998.3,N
1660680095.7,286046998.7,N
1660680115.6,286046997.1,N
1660680135.4,286046997.1,N
1660680155.3,286046995.1,Y
1660680175.1,286046996.8,P
1660680195.8,286046999.1,N
1660680215.7,286047001.0,N
1660680235.5,286047001.2,N
1660680255.4,286047000.8,N
1660680275.2,286046998.7,N
1660680295.0,286046996.5,N
1660680295.9,286046996.5,N
1660680315.8,286046999.3,N
1660680335.6,286046998.1,N
1660680355.4,286047001.1,N
1660680375.3,286047000.8,N
1660680395.1,286046998.3,N
1660680415.9,286047000.8,N
1660680435.7,286047001.1,N
1660680455.5,286046998.8,N
1660680475.4,286046998.9,N
1660680495.2,286046999.4,N
1660680515.0,286046998.6,N
1660680515.9,286046998.6,N
1660680535.8,286047001.1,N
1660680555.6,286047000.6,N
1660680575.5,286047000.5,N
1660680595.3,286046998.6,N
1660680615.1,286047001.1,N
1660680635.9,286046996.5,N
1660680655.7,286046999.6,N
1660680675.5,286046998.8,N
1660680695.4,286046999.4,N
1660680715.2,286046998.6,N
1660680735.1,286046998.8,N
1660680736.0,286046998.8,N
1660680755.8,286047000.5,N
1660680775.6,286047000.7,N
1660680795.5,286046999.8,N
1660680815.3,286046999.7,N
1660680835.2,286047002.0,N
1660680855.9,286047002.7,N
1660680875.7,286046999.8,N
1660680895.6,286047000.1,N
1660680915.4,286046999.8,N
1660680935.2,286047002.2,N
1660680955.1,286047004.3,Y
1660680956.0,286047004.3,P
1660680975.8,286047003.9,N
1660680995.7,286047004.4,N
1660681015.5,286047004.0,N
1660681035.3,286047004.2,N
1660681055.2,286047003.5,N
1660681075.0,286047003.9,N
1660681075.9,286047003.9,N
1660681095.8,286047001.3,N
1660681115.6,286047002.1,N
1660681135.4,286047002.6,N
1660681155.3,286047002.4,N
1660681175.1,286047002.2,N
1660681195.8,286047002.7,N
1660681215.7,286047000.4,N
1660681235.5,286047000.3,N
1660681255.4,286046999.8,N
1660681275.2,286046999.9,N
1660681295.0,286047000.0,N
1660681295.9,286047000.0,N
1660681315.8,286047002.2,N
1660681335.6,286047001.6,N
1660681355.5,286047002.1,N
1660681375.3,286047002.3,N
1660681395.1,286047001.4,N
1660681415.9,286047004.3,N
1660681435.7,286047002.1,N
1660681455.5,286046999.8,N
1660681475.4,286046999.7,N
1660681495.2,286047002.7,N
1660681515.1,286047002.0,N
1660681516.0,286047002.0,N
1660681535.8,286047004.3,N
1660681555.6,286047003.0,N
1660681575.5,286047003.5,N
1660681595.3,286047003.1,N
1660681615.1,286047003.7,N
1660681635.9,286047003.6,N
1660681655.7,286047004.2,Y
1660681675.6,286047000.2,P
1660681695.4,286047002.4,N
1660681715.2,286047002.4,N
1660681735.1,286046999.8,N
1660681736.0,286046999.8,N
1660681755.8,286047001.1,N
1660681775.7,286047000.3,N
1660681795.5,286047000.8,N
1660681815.3,286046999.7,N
1660681835.2,286047002.3,N
1660681855.0,286047000.5,N
1660681855.9,286047000.5,N
1660681875.8,286047001.0,N
1660681895.6,286047000.7,N
1660681915.4,286047000.2,N
1660681935.3,286047000.7,N
1660681955.1,286047001.0,N
1660681975.8,286046998.2,N
1660681995.7,286047001.0,N
1660682015.5,286047000.1,N
1660682035.4,286047001.2,N
1660682055.2,286046999.8,N
1660682075.0,286047002.6,N
1660682075.9,286047002.6,N
1660682095.8,286047002.0,N
1660682115.6,286047002.8,N
1660682135.4,286046999.8,N
1660682155.3,286047002.0,N
1660682175.1,286047004.0,Y
1660682195.9,286047002.0,P
1660682215.7,286046999.7,N
1660682235.5,286047002.1,N
1660682255.4,286047000.0,N
1660682275.2,286047001.0,N
1660682295.0,286047001.0,N
1660682295.9,286047001.0,N
1660682315.8,286047001.1,N
1660682335.6,286047001.0,N
1660682355.5,286047000.7,N
1660682375.3,286047002.8,Y
1660682395.1,286047000.0,P
1660682415.9,286047000.2,N
1660682435.7,286047000.2,N
1660682455.6,286047000.2,N
1660682475.4,286046998.3,Y
1660682495.2,286046998.8,P
1660682515.1,286046999.4,N
1660682516.0,286046999.4,N
1660682535.8,286046996.6,Y
1660682555.6,286046998.1,P
1660682575.5,286046998.1,N
1660682595.3,286047000.6,N
1660682615.2,286047002.7,N
1660682635.9,286047002.8,N
1660682655.7,286047002.5,N
1660682675.6,286047002.3,N
1660682695.4,286047001.6,N
1660682715.3,286047001.4,N
1660682735.1,286047003.9,N
1660682736.0,286047003.9,N
1660682755.8,286047003.7,N
1660682775.7,286047001.7,N
1660682795.5,286047004.2,N
1660682815.3,286047003.0,N
1660682835.2,286047001.3,N
1660682855.0,286047004.4,N
1660682855.9,286047004.4,N
1660682875.8,286047001.5,N
1660682895.6,286047004.3,N
1660682915.4,286047001.7,N
1660682935.3,286047002.5,N
1660682955.1,286047002.8,N
1660682975.8,286047000.5,N
1660682995.7,286047001.2,N
1660683015.5,286047000.7,N
1660683035.4,286046998.4,N
1660683055.2,286046998.4,N
1660683075.0,286046999.3,N
1660683075.9,286046999.3,N
1660683095.8,286046998.7,N
1660683115.0,286046998.1,N
1660683115.9,286046998.1,N
1660683135.8,286046998.8,N
1660683155.6,286047001.0,N
1660683175.5,286047000.1,N
1660683195.3,286046999.9,N
1660683215.1,286046999.8,N
1660683235.9,286046999.7,N
1660683255.7,286047002.6,N
1660683275.5,286047002.5,N
1660683295.4,286047001.7,N
1660683315.2,286047001.7,N
1660683335.1,286047004.3,N
1660683336.0,286047004.3,N
1660683355.8,286047004.2,N
1660683375.6,286047001.4,N
1660683395.5,286047004.0,N
1660683415.3,286047004.4,N
1660683435.1,286047003.7,N
1660683455.9,286047004.2,N
1660683475.7,286047001.6,N
1660683495.6,286047000.1,N
1660683515.4,286047002.5,N
1660683535.2,286047001.5,N
1660683555.1,286047001.3,N
1660683556.0,286047001.3,N
1660683575.8,286047001.5,N
1660683595.7,286047002.0,N
